Location: Москва
(55.7504°N, 37.6175°E)
Time: 15:37:35
(UTC+03:00)

X-37B - Visible Passes

Search period start: 21 September 2021 00:00
Search period end: 01 October 2021 00:00
Orbit: 381 x 393 km, 45.0° (Epoch: 29 August)

Date Brightness Start Highest point End Pass type
(mag) Time Alt. Az. Time Alt. Az. Time Alt. Az.
25 Sep 3.3 05:09:57 10° S 05:10:25 10° SSE 05:10:52 10° SSE visible
26 Sep 3.1 05:46:37 10° SSW 05:48:03 12° S 05:49:29 10° SSE visible
27 Sep 3.1 04:49:03 11° S 04:49:57 12° S 04:51:10 10° SSE visible
28 Sep 3.0 05:26:16 10° SSW 05:27:36 12° S 05:28:57 10° SSE visible
29 Sep 3.1 04:29:55 12° S 04:29:55 12° S 04:30:55 10° SSE visible
30 Sep 3.0 05:06:32 10° SSW 05:07:09 11° S 05:08:03 10° S visible
